Regional Weather Roundup
Issued by NWS Upton, NY

Current Version | Previous Version | Text Only | Print | Product List | Glossary On
Versions: 1 2 3 4 5 6 7 8 9 10 11 12 13 14 15 16 17 18 19 20 21 22 23 24 25 26 27 28 29 30 31 32 33 34 35 36 37 38 39 40 41 42 43 44 45 46 47 48 49 50
000 ASUS41 KOKX 191505 RWROKX REGIONAL WEATHER ROUNDUP NATIONAL WEATHER SERVICE NEW YORK NY 1100 AM EDT FRI SEP 19 2014 NOTE: "FAIR" INDICATES FEW OR NO CLOUDS BELOW 12,000 FEET WITH NO SIGNIFICANT WEATHER AND/OR OBSTRUCTIONS TO VISIBILITY. NYZ071-072-176-178-NJZ106-104-191600- NEW YORK CITY METRO AREA CITY SKY/WX TMP DP RH WIND PRES REMARKS CENTRAL PARK PTSUNNY 59 42 53 E14G20 30.37R LAGUARDIA APRT NOT AVBL KENNEDY INTL PTSUNNY 62 43 49 NE14 30.35R NEWARK/LIBERTY PTSUNNY 61 41 47 NE9G20 30.34R BRNX BOT. GARD N/A 57 43 58 E3 30.35F TETERBORO PTSUNNY 60 38 43 E10 30.34R $$ NYZ177-179-078>081-191600- LONG ISLAND NEW YORK CITY SKY/WX TMP DP RH WIND PRES REMARKS FARMINGDALE SUNNY 61 44 53 NE12G20 30.34R ISLIP MOSUNNY 60 44 55 NE13G21 30.33R SHIRLEY SUNNY 60 43 53 VRB5 30.35R WESTHAMPTON MOSUNNY 61 43 51 NE12G20 30.36R MONTAUK POINT N/A 58 42 55 NE12G17 30.36R $$ NYZ052-065-067-191600- HUDSON VALLEY CITY SKY/WX TMP DP RH WIND PRES REMARKS WHITE PLAINS MOSUNNY 57 37 47 E7G18 30.35R NEWBURGH MOSUNNY 55 43 62 E12 30.37S MONTGOMERY SUNNY 56 39 53 E8 30.36S POUGHKEEPSIE MOSUNNY 58 40 51 N6 30.36S ALBANY MOSUNNY 52 35 52 N7 30.40R $$ NJZ001-105-106-008-010-013-015-019>022-104-191600- NEW JERSEY CITY SKY/WX TMP DP RH WIND PRES REMARKS NEWARK/LIBERTY PTSUNNY 61 41 47 NE9G20 30.34R TETERBORO PTSUNNY 60 38 43 E10 30.34R CALDWELL MOSUNNY 59 38 45 E12 30.35R MORRISTOWN MOSUNNY 61 45 55 E7G15 30.36R SOMERVILLE NOT AVBL LINDEN PTSUNNY 65 43 44 E10 30.35S SUSSEX PTSUNNY 58 43 57 N10 30.36R ANDOVER N/A 56 45 66 VRB3 30.35R TRENTON MOSUNNY 62 46 55 E12 30.31S MILLVILLE PTSUNNY 67 56 67 E16 30.27R ATLANTIC CITY CLOUDY 66 56 70 E16G24 30.28R WRIGHTSTOWN NOT AVBL TOMS RIVER CLOUDY 63 48 59 E10G18 30.32R BELMAR MOSUNNY 63 46 55 NE12G22 30.32S $$ PAZ047>061-062-071-191600- EASTERN PENNSYLVANIA CITY SKY/WX TMP DP RH WIND PRES REMARKS PHILADELPHIA CLOUDY 64 52 64 E13 30.31R ALLENTOWN SUNNY 60 44 55 NE10 30.33S SCRANTON PTSUNNY 55 43 63 VRB3 30.33S $$ CTZ002-004>006-009-010-012-RIZ004-006-007-MAZ004-011-015-191600- SOUTHERN NEW ENGLAND IN CT CITY SKY/WX TMP DP RH WIND PRES REMARKS BRADLEY INTL MOSUNNY 55 35 47 VRB6 30.37S HARTFORD SUNNY 55 37 50 VRB6 30.38S DANBURY SUNNY 55 38 52 NE10 30.37S WTRBRY/OXFORD SUNNY 54 36 50 NE9 30.37S BRIDGEPORT SUNNY 59 39 47 NE12 30.36R MERIDEN SUNNY 56 36 47 NE13 30.37S NEW HAVEN MOSUNNY 60 39 45 NE8 30.36S CHESTER FAIR 55 36 47 N7 30.37R GROTON SUNNY 58 38 47 NE9G20 30.35S WILLIMANTIC SUNNY 56 35 45 NE10 30.37S IN RI CITY SKY/WX TMP DP RH WIND PRES REMARKS PROVIDENCE MOSUNNY 56 34 43 NE12G18 30.38S BLOCK ISLAND MOSUNNY 57 41 54 NE13 30.35S WESTERLY SUNNY 57 37 47 NE9 30.36R IN MA CITY SKY/WX TMP DP RH WIND PRES REMARKS BOSTON MOSUNNY 54 34 46 NE12 30.39S WORCESTER SUNNY 48 32 53 NE9 30.38R WESTFIELD SUNNY 53 31 42 NE8 30.38F PROVINCETOWN PTSUNNY 55 37 50 NE15 30.37S NANTUCKET SUNNY 59 39 47 N20G26 30.33R $$ ANZ330-335-338-340-345-350-353-355-191600- COASTAL MARINE OBSERVATIONS STATION/POSITION TIME SKY/WX TEMP WIND PRES VSBY WAVE AIR SEA DIR/SP/G HT/PER (UTC) (F) (DEG/KT/KT) (MB) (MI) (FT/S) NY HARB ENTRANCE 1500 59 70 50/ 16/ 19 1027.0 4/ 5 4S FIRE IS 1500 70 N/A 3/ 4 23SW MTP 1500 N/A 6/ 6 HUDSON CANYON 1500 66 72 50/ 21/ 25 1024.2 7/ 6 EXECUTION ROCKS 1500 58 70 60/ 17/ 23 N/A WESTERN LI SOUND 1500 57 60/ 16/ 19 N/A 3/ 4 CENTRAL LI SOUND 1400 55 70 60/ 12/ 16 N/A 2/ 4 EASTERN LI SOUND 1400 58 68 50/ 12/ 16 N/A ROBBINS REEF 1500 57 50/ 15/ 18 1026.0 $$ >>>>>>>>>>>>>>>>>>>>>>>>>>>> KEY <<<<<<<<<<<<<<<<<<<<<<<<<<< > < > SKY/WX - SKY CONDITION/PRESENT WEATHER < > TMP - TEMPERATURE IN FAHRENHEIT < > DP - DEWPOINT IN FAHRENHEIT < > RH - RELATIVE HUMIDITY IN PERCENT < > WIND - DIRECTION AND SPEED IN MPH < > PRES - MEAN SEA LEVEL PRESSURE IN INCHES OF HG < > WCI - WIND CHILL INDEX < > VSB - VISIBILITY IN MILES < > HX - HEAT INDEX < > TC - TEMPERATURE IN CELSIUS < > VRB - VARIABLE WIND DIRECTION < > < >>>>>>>>>>>>>>>>>>>>>>>>>>>> KEY <<<<<<<<<<<<<<<<<<<<<<<<<<<

USA.gov is the U.S. government's official web portal to all federal, state and local government web resources and services.